Smyrna, TN

9:54 AM CDT on October 19, 2017 (GMT -0500)
Smyrna

Weather History for KMQY - December, 2012

Change the Weather History Date:

Friday, December 14, 2012

  Actual Average Record
Temperature  
Mean Temperature 42 °F -  
Max Temperature 59 °F 47 °F 72 °F (2011)
Min Temperature 24 °F 33 °F 9 °F (2010)
Degree Days  
Heating Degree Days 24    
Moisture  
Dew Point 34 °F    
Average Humidity 78    
Maximum Humidity 100    
Minimum Humidity 42    
Precipitation  
Precipitation 0.00 in - - ()
Sea Level Pressure  
Sea Level Pressure 30.27 in    
Wind  
Wind Speed 1 mph (South)    
Max Wind Speed 7 mph    
Max Gust Speed -    
Visibility 10 miles    
Events      
Averages and records for this station are not official NWS values.
T = Trace of Precipitation, MM = Missing Value Source: NWS Daily Summary

Daily Weather History Graph

Daily Weather History Graph

Search for Another Location

Airport or City:

Trip Planner

Search our weather history database for the weather conditions in past years. The results will help you decide how hot, cold, wet, or windy it might be!

Date:

Astronomy

Dec. 14, 2012 Rise Set
Actual Time 6:49 AM CST 4:33 PM CST
Civil Twilight 6:20 AM CST 5:01 PM CST
Nautical Twilight 5:48 AM CST 5:33 PM CST
Astronomical Twilight 5:17 AM CST 6:04 PM CST
Moon 7:54 AM CST (12/14) 6:22 PM CST (12/14)
Length of Visible Light 10h 41m
Length of Day
9h 43m
Waxing Crescent, 3% of the Moon is Illuminated
Dec 14
Waxing Crescent
Dec 19
First Quarter
Dec 28
Full
Jan 4
Last Quarter
Jan 11
New

Hourly Weather History & Observations

Time (CST) Temp. Dew Point Humidity Pressure Visibility Wind Dir Wind Speed Gust Speed Precip Events Conditions
12:56 AM 26.1 °F 26.1 °F 100% 30.34 in 10.0 mi Calm Calm - N/A   Clear
1:56 AM 26.1 °F 25.2 °F 96% 30.37 in 10.0 mi Calm Calm - N/A   Clear
2:56 AM 26.1 °F 26.1 °F 100% 30.35 in 10.0 mi Calm Calm - N/A   Clear
3:56 AM 25.2 °F 24.1 °F 96% 30.33 in 10.0 mi Calm Calm - N/A   Clear
5:56 AM 25.2 °F 24.1 °F 96% 30.35 in 10.0 mi Calm Calm - N/A   Clear
6:56 AM 24.1 °F 23.0 °F 96% 30.37 in 10.0 mi Calm Calm - N/A   Clear
7:56 AM 29.1 °F 28.0 °F 96% 30.37 in 10.0 mi Calm Calm - N/A   Clear
8:56 AM 36.9 °F 32.0 °F 83% 30.38 in 10.0 mi Calm Calm - N/A   Clear
9:56 AM 45.9 °F 34.9 °F 66% 30.36 in 10.0 mi Calm Calm - N/A   Clear
10:56 AM 52.9 °F 38.8 °F 59% 30.33 in 10.0 mi South 6.9 mph - N/A   Clear
12:56 PM 57.9 °F 39.9 °F 51% 30.26 in 10.0 mi South 4.6 mph - N/A   Clear
1:56 PM 59.0 °F 37.9 °F 46% 30.24 in 10.0 mi SSW 5.8 mph - N/A   Clear
2:56 PM 59.0 °F 36.0 °F 42% 30.22 in 10.0 mi Calm Calm - N/A   Clear
3:56 PM 54.9 °F 37.9 °F 53% 30.22 in 10.0 mi Calm Calm - N/A   Clear
4:56 PM 48.9 °F 37.9 °F 66% 30.21 in 10.0 mi Calm Calm - N/A   Clear
5:56 PM 43.0 °F 37.9 °F 82% 30.21 in 10.0 mi Calm Calm - N/A   Clear
6:56 PM 45.0 °F 38.8 °F 79% 30.22 in 10.0 mi Calm Calm - N/A   Clear
7:56 PM 43.9 °F 38.8 °F 82% 30.19 in 10.0 mi Calm Calm - N/A   Clear
8:56 PM 45.0 °F 38.8 °F 79% 30.18 in 10.0 mi Calm Calm - N/A   Clear
9:56 PM 45.0 °F 38.8 °F 79% 30.16 in 10.0 mi Calm Calm - N/A   Clear
10:56 PM 45.0 °F 39.9 °F 82% 30.15 in 10.0 mi Calm Calm - N/A   Clear
11:56 PM 43.9 °F 39.9 °F 86% 30.14 in 10.0 mi Calm Calm - N/A   Clear